When you browse on this site, cookies collect data to enhance your experience and personalize the content and advertising you see.
Visit our Privacy Policy to learn more. By continuing to use the site, you agree to this use of cookies and data.
  • In Hungary
  • List of Countries
  • For 7 days
  • Water Temperature
  • Weather Map
  • News
  • Weather Widgets
  • user-avatar
    Login

    Hourly Weather Radziwilka

    Today, 18 September, Wednesday

    Time Temperature Precipitation Wind Pressure Humidity
    00:00 +6°C° 0 mm 8 mps 748 mmHg 80%
    01:00 +5°C° 0 mm 9 mps 749 mmHg 80%
    02:00 +5°C° 0.2 mm 9 mps 749 mmHg 81%
    03:00 +5°C° 0.2 mm 9 mps 749 mmHg 82%
    04:00 +5°C° 0.2 mm 9 mps 749 mmHg 83%
    05:00 +6°C° 0.2 mm 9 mps 750 mmHg 82%
    06:00 +7°C° 0.2 mm 9 mps 750 mmHg 80%
    07:00 +7°C° 0.2 mm 9 mps 751 mmHg 78%
    08:00 +8°C° 0 mm 9 mps 752 mmHg 73%
    09:00 +10°C° 0 mm 9 mps 753 mmHg 67%
    10:00 +11°C° 0 mm 9 mps 753 mmHg 61%
    11:00 +12°C° 0.1 mm 9 mps 754 mmHg 57%
    12:00 +13°C° 0.1 mm 9 mps 754 mmHg 53%
    13:00 +15°C° 0.1 mm 9 mps 754 mmHg 48%
    14:00 +13°C° 0.3 mm 8 mps 754 mmHg 52%
    15:00 +13°C° 0.3 mm 8 mps 755 mmHg 56%
    16:00 +12°C° 0.3 mm 7 mps 755 mmHg 59%
    17:00 +11°C° 0.4 mm 6 mps 755 mmHg 67%
    18:00 +10°C° 0.4 mm 6 mps 756 mmHg 74%
    19:00 +8°C° 0.4 mm 5 mps 756 mmHg 82%
    20:00 +8°C° 0.1 mm 4 mps 756 mmHg 84%
    21:00 +7°C° 0.1 mm 4 mps 757 mmHg 87%
    22:00 +7°C° 0.1 mm 4 mps 757 mmHg 90%
    23:00 +7°C° 0 mm 4 mps 758 mmHg 91%

    Tomorrow, 19 September, Thursday

    Time Temperature Precipitation Wind Pressure Humidity
    00:00 +6°C° 0 mm 4 mps 758 mmHg 92%
    01:00 +6°C° 0 mm 4 mps 758 mmHg 93%
    02:00 +6°C° 0 mm 4 mps 758 mmHg 92%
    03:00 +6°C° 0 mm 4 mps 758 mmHg 91%
    04:00 +5°C° 0 mm 4 mps 758 mmHg 90%
    05:00 +6°C° 0 mm 4 mps 759 mmHg 88%
    06:00 +6°C° 0 mm 5 mps 759 mmHg 86%
    07:00 +6°C° 0 mm 5 mps 759 mmHg 83%
    08:00 +8°C° 0 mm 5 mps 759 mmHg 78%
    09:00 +10°C° 0 mm 5 mps 760 mmHg 73%
    10:00 +12°C° 0 mm 5 mps 760 mmHg 68%
    11:00 +13°C° 0.1 mm 5 mps 760 mmHg 62%
    12:00 +14°C° 0.1 mm 5 mps 760 mmHg 56%
    13:00 +15°C° 0.1 mm 6 mps 759 mmHg 50%
    14:00 +15°C° 0.3 mm 5 mps 760 mmHg 51%
    15:00 +14°C° 0.3 mm 5 mps 760 mmHg 52%
    16:00 +14°C° 0.3 mm 5 mps 760 mmHg 53%
    17:00 +12°C° 0.1 mm 4 mps 760 mmHg 58%
    18:00 +11°C° 0.1 mm 4 mps 760 mmHg 62%
    19:00 +9°C° 0.1 mm 3 mps 761 mmHg 67%
    20:00 +8°C° 0 mm 3 mps 761 mmHg 70%
    21:00 +8°C° 0 mm 3 mps 761 mmHg 74%
    22:00 +7°C° 0 mm 2 mps 761 mmHg 77%
    23:00 +7°C° 0 mm 2 mps 761 mmHg 78%

    Day after tomorrow, 20 September, Friday

    Time Temperature Precipitation Wind Pressure Humidity
    00:00 +7°C° 0 mm 2 mps 761 mmHg 78%
    01:00 +7°C° 0 mm 2 mps 761 mmHg 78%
    02:00 +5°C° 0 mm 3 mps 761 mmHg 79%
    03:00 +5°C° 0 mm 3 mps 761 mmHg 81%
    04:00 +5°C° 0 mm 3 mps 761 mmHg 82%
    05:00 +7°C° 0 mm 3 mps 761 mmHg 82%
    06:00 +6°C° 0 mm 4 mps 762 mmHg 82%
    07:00 +7°C° 0 mm 4 mps 762 mmHg 82%
    08:00 +10°C° 0 mm 4 mps 762 mmHg 72%
    09:00 +11°C° 0 mm 4 mps 762 mmHg 63%
    10:00 +13°C° 0 mm 4 mps 762 mmHg 53%
    11:00 +14°C° 0 mm 4 mps 762 mmHg 49%
    12:00 +14°C° 0 mm 5 mps 762 mmHg 46%
    13:00 +15°C° 0 mm 5 mps 762 mmHg 42%
    14:00 +14°C° 0 mm 5 mps 762 mmHg 44%
    15:00 +14°C° 0 mm 4 mps 762 mmHg 46%
    16:00 +14°C° 0 mm 4 mps 762 mmHg 49%
    17:00 +12°C° 0 mm 3 mps 762 mmHg 54%
    18:00 +11°C° 0 mm 3 mps 763 mmHg 60%
    19:00 +9°C° 0 mm 2 mps 763 mmHg 65%
    20:00 +8°C° 0 mm 2 mps 763 mmHg 64%
    21:00 +9°C° 0 mm 1 mps 764 mmHg 64%
    22:00 +8°C° 0 mm 1 mps 764 mmHg 63%
    23:00 +8°C° 0 mm 1 mps 764 mmHg 63%

    21 September, Saturday

    Time Temperature Precipitation Wind Pressure Humidity
    00:00 +8°C° 0 mm 1 mps 764 mmHg 63%
    01:00 +6°C° 0 mm 0 mps 764 mmHg 63%
    02:00 +7°C° 0 mm 1 mps 764 mmHg 63%
    03:00 +7°C° 0 mm 1 mps 764 mmHg 64%
    04:00 +7°C° 0 mm 1 mps 764 mmHg 64%
    05:00 +7°C° 0 mm 1 mps 764 mmHg 64%
    06:00 +8°C° 0 mm 1 mps 764 mmHg 63%
    07:00 +9°C° 0 mm 1 mps 764 mmHg 63%
    08:00 +10°C° 0 mm 2 mps 764 mmHg 58%
    09:00 +13°C° 0 mm 2 mps 764 mmHg 54%
    10:00 +15°C° 0 mm 2 mps 764 mmHg 49%
    11:00 +16°C° 0 mm 2 mps 764 mmHg 46%
    12:00 +17°C° 0 mm 2 mps 764 mmHg 43%
    13:00 +18°C° 0 mm 2 mps 763 mmHg 41%
    14:00 +18°C° 0 mm 2 mps 763 mmHg 42%
    15:00 +18°C° 0 mm 2 mps 763 mmHg 43%
    16:00 +18°C° 0 mm 2 mps 762 mmHg 44%
    17:00 +16°C° 0 mm 1 mps 762 mmHg 48%
    18:00 +14°C° 0 mm 1 mps 762 mmHg 52%
    19:00 +12°C° 0 mm 1 mps 762 mmHg 56%
    20:00 +12°C° 0 mm 1 mps 762 mmHg 57%
    21:00 +12°C° 0 mm 2 mps 762 mmHg 58%
    22:00 +10°C° 0 mm 2 mps 762 mmHg 59%
    23:00 +10°C° 0 mm 2 mps 762 mmHg 60%

    22 September, Sunday

    Time Temperature Precipitation Wind Pressure Humidity
    00:00 +9°C° 0 mm 2 mps 762 mmHg 61%
    01:00 +9°C° 0 mm 2 mps 762 mmHg 62%
    02:00 +9°C° 0 mm 2 mps 762 mmHg 63%
    03:00 +8°C° 0 mm 2 mps 761 mmHg 64%
    04:00 +8°C° 0 mm 2 mps 761 mmHg 64%
    05:00 +9°C° 0 mm 2 mps 761 mmHg 63%
    06:00 +9°C° 0 mm 2 mps 760 mmHg 62%
    07:00 +10°C° 0 mm 2 mps 760 mmHg 61%
    08:00 +13°C° 0 mm 2 mps 760 mmHg 55%
    09:00 +16°C° 0 mm 3 mps 760 mmHg 49%
    10:00 +18°C° 0 mm 3 mps 760 mmHg 44%
    11:00 +19°C° 0 mm 3 mps 759 mmHg 42%
    12:00 +20°C° 0 mm 2 mps 758 mmHg 39%
    13:00 +21°C° 0 mm 2 mps 758 mmHg 37%
    14:00 +21°C° 0 mm 2 mps 757 mmHg 40%
    15:00 +21°C° 0 mm 2 mps 757 mmHg 42%
    16:00 +21°C° 0 mm 2 mps 756 mmHg 45%
    17:00 +19°C° 0 mm 2 mps 756 mmHg 49%
    18:00 +17°C° 0 mm 2 mps 756 mmHg 53%
    19:00 +14°C° 0 mm 3 mps 756 mmHg 57%
    20:00 +14°C° 0 mm 2 mps 756 mmHg 59%
    21:00 +14°C° 0 mm 2 mps 755 mmHg 62%
    22:00 +13°C° 0 mm 2 mps 755 mmHg 64%
    23:00 +13°C° 0 mm 2 mps 755 mmHg 66%

    23 September, Monday

    Time Temperature Precipitation Wind Pressure Humidity
    00:00 +12°C° 0 mm 2 mps 755 mmHg 67%
    01:00 +12°C° 0 mm 2 mps 754 mmHg 69%
    02:00 +12°C° 0 mm 2 mps 754 mmHg 70%
    03:00 +12°C° 0 mm 2 mps 754 mmHg 71%
    04:00 +10°C° 0 mm 2 mps 753 mmHg 72%
    05:00 +12°C° 0 mm 2 mps 753 mmHg 70%
    06:00 +13°C° 0 mm 2 mps 752 mmHg 69%
    07:00 +13°C° 0 mm 2 mps 752 mmHg 67%
    08:00 +15°C° 0 mm 2 mps 752 mmHg 62%
    09:00 +17°C° 0 mm 2 mps 752 mmHg 57%
    10:00 +18°C° 0 mm 2 mps 752 mmHg 51%
    11:00 +19°C° 0 mm 2 mps 751 mmHg 52%
    12:00 +19°C° 0 mm 2 mps 751 mmHg 53%
    13:00 +20°C° 0 mm 1 mps 750 mmHg 53%
    14:00 +20°C° 0 mm 1 mps 750 mmHg 54%
    15:00 +20°C° 0 mm 1 mps 750 mmHg 55%
    16:00 +20°C° 0 mm 1 mps 750 mmHg 55%
    17:00 +19°C° 0.1 mm 1 mps 750 mmHg 59%
    18:00 +18°C° 0.1 mm 1 mps 750 mmHg 63%
    19:00 +16°C° 0.1 mm 1 mps 750 mmHg 67%
    20:00 +15°C° 0.1 mm 1 mps 750 mmHg 71%
    21:00 +15°C° 0.1 mm 2 mps 750 mmHg 76%
    22:00 +15°C° 0.1 mm 2 mps 750 mmHg 80%
    23:00 +15°C° 0.4 mm 2 mps 750 mmHg 84%
    Show more